Regional Weather Roundup
Issued by NWS San Diego, CA

Home | Current Version | Previous Version | Text Only | Print | Product List | Glossary On
Versions: 1 2 3 4 5 6 7 8 9 10 11 12 13 14 15 16 17 18 19 20 21 22 23 24 25 26 27 28 29 30 31 32 33 34 35 36 37 38 39 40 41 42 43 44 45 46 47 48 49 50
000
ASUS46 KSGX 291411
RWRSGX

SAN DIEGO HOURLY WEATHER ROUNDUP
NATIONAL WEATHER SERVICE SAN DIEGO CA
700 AM PDT FRI MAY 29 2015

NOTE: "FAIR" INDICATES FEW OR NO CLOUDS BELOW 12,000 FEET WITH NO
SIGNIFICANT WEATHER AND/OR OBSTRUCTIONS TO VISIBILITY.

CAZ042-043-060-061-PZZ750-775-291500-

GREATER SAN DIEGO AREA

CITY           SKY/WX    TMP DP  RH WIND       PRES   REMARKS
LINDBERGH FLD  CLOUDY    61  55  81 CALM      29.96S
POINT LOMA       N/A     59  56  91 NW2         N/A
NATIONAL CITY    N/A     62  58  88 CALM      29.95S
CHULA VISTA      N/A     60  58  90 CALM      29.88R
IMPERIAL BEACH CLOUDY    60  57  89 W5        29.96R
BROWN FIELD    CLOUDY    58  56  93 NE3       29.95R FOG
MIRAMAR MCAS   CLOUDY    63  55  75 CALM      29.95R HAZE
MONTGOMERY FLD CLOUDY    58  56  93 CALM      29.95S FOG

$$

NORTH SAN DIEGO COUNTY

CITY           SKY/WX    TMP DP  RH WIND       PRES   REMARKS
OCEANSIDE AP   CLOUDY    61  57  87 CALM      29.94S
OCEANSIDE HBR    N/A     61  59  93 E1        29.98R
VISTA            N/A     60  54  82 CALM      29.93S
CARLSBAD       CLOUDY    61  57  87 CALM      29.94S
DEL MAR          N/A     60  57  91 CALM      29.97S
LA JOLLA SCRIP   N/A    N/A N/A N/A CALM      29.93R
FALLBROOK        N/A     58  58 100 CALM      29.95S
ESCONDIDO        N/A     59  57  91 NE2       29.96S
SAN MARCOS       N/A     58  55  88 CALM      29.93S
POWAY            N/A     57  54  89 CALM      29.97R

$$

EAST SAN DIEGO COUNTY

CITY           SKY/WX    TMP DP  RH WIND       PRES   REMARKS
RAMONA         FOG       53  52  96 CALM      29.95S VSB 1/4
SANTEE LAKES     N/A     58  56  92 CALM      29.95R
LA MESA          N/A     58  56  91 CALM      29.89R
JAMUL            N/A     55  53  94 CALM      29.94R
DESCANSO N       N/A     59  43  56 CALM      29.81R
MT. LAGUNA OBS   N/A     65  15  14 CALM      29.71S
CAMPO            N/A     55  47  74 NE5       29.96R

$$

ORANGE COUNTY AND THE LOS ANGELES BASIN

CITY           SKY/WX    TMP DP  RH WIND       PRES   REMARKS
JOHN WAYNE AP  CLOUDY    62  55  77 CALM      29.95S
LAKE FOREST FR   N/A     56  53  87 CALM      29.87R
SANTA ANA        N/A     63  57  81 CALM      29.91R
HUNTINGTON BCH   N/A     60  57  91 CALM      29.97R
LOS ALAMITOS   CLOUDY    61  57  89 VRB1      29.96R FOG
FULLERTON      CLOUDY    62  55  77 SE3       29.95R
LONG BEACH     CLOUDY    60  56  86 SW5       29.96R
L.A. AP        CLOUDY    59  56  89 VRB5      29.96R FOG
L.A. DOWNTOWN  CLOUDY    60  55  83 CALM      29.96R HAZE

$$

THE INLAND EMPIRE

CITY           SKY/WX    TMP DP  RH WIND       PRES   REMARKS
CORONA         CLOUDY    58  57  96 CALM      29.97R FOG
CHINO          CLOUDY    59  56  89 CALM      29.97R FOG
ONTARIO        CLOUDY    58  55  90 CALM      29.96R FOG
RIVERSIDE AP   CLOUDY    57  55  93 W5        29.96R FOG
RIV CYN CREST    N/A     57  57 100 W1          N/A
MORENO VALLEY    N/A     57  57  97 CALM      29.94R
MARCH ARB      SUNNY     58  56  94 NW2       29.95S
HORSETHIEF CYN   N/A     57  52  84 CALM      29.91R
PERRIS           N/A     57  56  94 NW1         N/A
MENIFEE          N/A     55  55  97 S2        30.02R
HEMET EAST       N/A     57  49  74 CALM      29.89R
FRENCH VALLEY  CLOUDY    55  55 100 CALM      29.96S VSB<1/4
TEMECULA         N/A     57  56  96 CALM      29.92F

$$

SAN BERNARDINO AND RIVERSIDE COUNTY MOUNTAINS

CITY           SKY/WX    TMP DP  RH WIND       PRES   REMARKS
BIG BEAR AP    SUNNY     43  32  65 CALM      30.23R
ANGELUS OAKS     N/A     54  35  48 CALM      29.82R
PINE COVE        N/A     61  35  37 CALM      29.87S

$$

SOUTHERN DESERT INCLUDING THE COACHELLA VALLEY

CITY           SKY/WX    TMP DP  RH WIND       PRES   REMARKS
PALM SPRINGS   SUNNY     75  54  47 CALM      29.88R
PALM DESERT      N/A     74  58  57 CALM        N/A
THERMAL        SUNNY     70  55  59 CALM      29.84R
BLYTHE         SUNNY     73  34  23 N5        29.87R
IMPERIAL AP    SUNNY     71  51  49 SE8       29.84R
EL CENTRO NAS  MOSUNNY   69  58  67 CALM      29.86R
YUMA AZ        MOSUNNY   75  43  31 CALM      29.87R
MEXICALI       SUNNY     68  48  49 SE6       29.86

$$

UPPER DESERT

CITY           SKY/WX    TMP DP  RH WIND       PRES   REMARKS
VICTORVILLE AP SUNNY     64  30  27 CALM      30.00R
HESPERIA         N/A     61  36  40 CALM      29.99R
APPLE VALLEY     N/A     56  38  52 CALM      30.05S
PALMDALE       SUNNY     63  35  35 E5        29.98R
LANCASTER      SUNNY     65  38  36 NE3       29.96R
EDWARDS AFB    SUNNY     61  31  31 CALM      29.95R
DAGGETT        SUNNY     70  31  23 W13       29.94R
29 PALMS N     SUNNY     69  28  21 NW6       30.01R
NEEDLES        SUNNY     81  24  12 CALM      29.89R

$$

REGIONAL REPORTS

CITY           SKY/WX    TMP DP  RH WIND       PRES   REMARKS
SANTA BARBARA  CLOUDY    58  55  90 E3        29.95R
SANDBERG       SUNNY     65  38  36 N16       30.07R
LAS VEGAS NV   SUNNY     80  32  17 S3        29.93R
PHOENIX AZ     MOSUNNY   76  40  27 SE8       29.91R
TIJUANA        CLOUDY    57  54  88 N6        29.98R FOG
ENSENADA NW      N/A     60  32  34 CALM      29.93R

$$

OFFSHORE ISLANDS

CITY           SKY/WX    TMP DP  RH WIND       PRES   REMARKS
CATALINA ARPT  FOG       53  53 100 E3        29.97R VSB<1/4
SAN NICOLAS IS CLOUDY    58  47  66 NW10      29.95R

$$

MARINE AND OFFSHORE BUOY REPORTS

STATION/POSITION SKY/WX   TEMP    WIND        PRES    SWELL
                          AIR SEA DIR/SP/G            HT/PER/DIR
                          (F)     (DEG/KT/KT) (MB)    (FT/S/D)
TANNER BANKS               58 60  320/ 14/ 17 1014.7R   5/300/13
S CLEMENTE BASIN           59 63   CALM  /  2 1014.3R   3/190/16
SAN NICOLAS IS.               60                N/A     3/240/14
SO. S. ROSA ISLA           55 60  320/ 17/ 21 1013.8R   3/12
W. S. BARBARA CH           52 55  330/ 19/ 21 1013.8R   3/290/14
M. S. BARBARA CH           57 59  170/  4/  6 1014.8R
S. MONICA BASIN            59 63   50/  4/  6 1014.3R   3/230/16
S PEDRO CHANNEL               63                N/A     2/190/14
DANA POINT                    64                N/A     2/210/15
OCEANSIDE OFFSHR              65                N/A     3/210/15
TORREY PINES OTR              65                N/A     3/210/14
LA JOLLA 1                 60 65   CALM  /  2 1013.9R
MISSION BAY BUOY              65                N/A     3/240/13
SAN DIEGO BAY                 65              1014.4R
POINT LOMA SOUTH              65                N/A     3/200/13

$$




USA.gov is the U.S. government's official web portal to all federal, state and local government web resources and services.